Regional Weather Roundup
Issued by NWS

Home | Current Version | Previous Version | Graphics & Text | Print | Product List | Glossary On
Versions: 1 2 3 4 5 6 7 8 9 10 11 12 13 14 15 16 17 18 19 20 21 22 23 24 25 26 27 28 29 30 31 32 33 34 35 36 37 38 39 40 41 42 43 44 45 46 47 48 49 50
000
ASUS43 KFSD 141102
RWRSD

WEATHER ROUNDUP FOR SOUTH DAKOTA
NATIONAL WEATHER SERVICE SIOUX FALLS SD
500 AM CST THU DEC 14 2017

NOTE: "FAIR" INDICATES FEW OR NO CLOUDS BELOW 12,000 FEET WITH NO
SIGNIFICANT WEATHER AND/OR OBSTRUCTIONS TO VISIBILITY.


SDZ001>005-009-010-012>017-141200-
NORTHWEST AND NORTH CENTRAL SOUTH DAKOTA

CITY           SKY/WX    TMP DP  RH WIND       PRES   REMARKS
BUFFALO          N/A     33  28  81 NW28G41   30.00R WCI  20
FAITH            N/A     34  31  88 NW22G31   30.01R WCI  22
MOBRIDGE       CLOUDY    30  27  88 CALM      29.96S
$$

SDZ012>016-024>037-041>051-057-063-072>074-141200-
SOUTHWEST AND SOUTH CENTRAL SOUTH DAKOTA

CITY           SKY/WX    TMP DP  RH WIND       PRES   REMARKS
RAPID CTY ARPT CLOUDY    38  25  59 NW28G36   30.06R
PIERRE         LGT RAIN  36  31  82 NW9       30.00S
CUSTER         CLOUDY    29  19  66 NW22G41   30.01S WCI  15
PHILIP         LGT RAIN  35  33  92 NW10      30.04S WCI  27
PINE RIDGE     CLOUDY    32  32 100 SW5       30.07F WCI  27
SPEARFISH      LGT RAIN  36  23  60 NW23G32   30.08S
WINNER         CLOUDY    36  28  73 NW12      30.01F
$$

SDZ004>011-016>023-039-040-141200-
NORTHEAST SOUTH DAKOTA

CITY           SKY/WX    TMP DP  RH WIND       PRES   REMARKS
ABERDEEN       CLOUDY    26  26 100 S5        29.99S WCI  20
WATERTOWN      CLOUDY    26  25  96 W3        29.95S
BROOKINGS      CLOUDY    27  25  92 NW3       29.98R
SISSETON         N/A     21  18  88 E6        29.98S WCI  13
$$

SDZ017-020-022-023-036>040-048>070-141200-
SOUTHEAST SOUTH DAKOTA

CITY           SKY/WX    TMP DP  RH WIND       PRES   REMARKS
SIOUX FALLS    FRZ DRZL  28  26  92 E5        29.99R WCI  23
HURON          CLOUDY    28  24  85 NW9       30.00R WCI  19
CHAMBERLAIN    CLOUDY    29  26  92 CALM      30.01F
MITCHELL       MOCLDY    33  26  75 NW10      30.01S WCI  25
YANKTON        CLOUDY    33  25  72 W10       30.01S WCI  25
$$

ABBREVIATIONS USED IN REMARKS
   TC - TEMPERATURE IN CELSIUS
  WCI - WIND CHILL INDEX
   HX - HEAT INDEX
  VSB - VISIBILITY





USA.gov is the U.S. government's official web portal to all federal, state and local government web resources and services.